Time,TemperatureF,DewpointF,PressureIn,WindDirection,WindDirectionDegrees,WindSpeedMPH,WindSpeedGustMPH,Humidity,HourlyPrecipIn,Conditions,Clouds,dailyrainin,SoftwareType,DateUTC
2013-03-02 00:01:00,10.0,8.0,30.40,ENE,65,0.0,0.0,90,0.00,,,0.00,,2013-03-02 06:01:00,
2013-03-02 00:11:00,10.0,8.0,30.40,ENE,65,0.0,0.0,90,0.00,,,0.00,,2013-03-02 06:11:00,
2013-03-02 00:21:00,9.0,6.0,30.40,ENE,65,0.0,0.0,89,0.00,,,0.00,,2013-03-02 06:21:00,
2013-03-02 00:31:00,9.0,6.0,30.40,ENE,65,0.0,0.0,89,0.00,,,0.00,,2013-03-02 06:31:00,
2013-03-02 00:42:00,9.0,6.0,30.40,ENE,65,0.0,0.0,89,0.00,,,0.00,,2013-03-02 06:42:00,
2013-03-02 00:51:00,8.0,5.0,30.40,ENE,65,0.0,0.0,88,0.00,,,0.00,,2013-03-02 06:51:00,
2013-03-02 01:01:00,8.0,5.0,30.41,ENE,65,0.0,0.0,88,0.00,,,0.00,,2013-03-02 07:01:00,
2013-03-02 01:11:00,8.0,5.0,30.41,ENE,65,0.0,0.0,88,0.00,,,0.00,,2013-03-02 07:11:00,
2013-03-02 01:21:00,7.0,4.0,30.40,ENE,65,0.0,1.0,88,0.00,,,0.00,,2013-03-02 07:21:00,
2013-03-02 01:32:00,7.0,4.0,30.40,ENE,65,0.0,1.0,88,0.00,,,0.00,,2013-03-02 07:32:00,
2013-03-02 01:42:00,7.0,4.0,30.40,ENE,65,0.0,1.0,88,0.00,,,0.00,,2013-03-02 07:42:00,
2013-03-02 01:51:00,6.0,3.0,30.40,ENE,65,0.0,1.0,88,0.00,,,0.00,,2013-03-02 07:51:00,
2013-03-02 02:01:00,6.0,3.0,30.40,ENE,65,0.0,0.0,87,0.00,,,0.00,,2013-03-02 08:01:00,
2013-03-02 02:11:00,6.0,3.0,30.40,ENE,65,0.0,0.0,87,0.00,,,0.00,,2013-03-02 08:11:00,
2013-03-02 02:21:00,5.0,2.0,30.40,ENE,65,0.0,1.0,87,0.00,,,0.00,,2013-03-02 08:21:00,
2013-03-02 02:32:00,5.0,2.0,30.40,ENE,65,0.0,1.0,87,0.00,,,0.00,,2013-03-02 08:32:00,
2013-03-02 02:42:00,5.0,2.0,30.40,ENE,65,0.0,1.0,87,0.00,,,0.00,,2013-03-02 08:42:00,
2013-03-02 02:52:00,5.0,2.0,30.40,ENE,65,0.0,0.0,87,0.00,,,0.00,,2013-03-02 08:52:00,
2013-03-02 03:02:00,5.0,2.0,30.40,ENE,65,0.0,0.0,88,0.00,,,0.00,,2013-03-02 09:02:00,
2013-03-02 03:11:00,5.0,2.0,30.40,ENE,65,0.0,0.0,88,0.00,,,0.00,,2013-03-02 09:11:00,
2013-03-02 03:21:00,4.0,1.0,30.40,ENE,65,0.0,0.0,88,0.00,,,0.00,,2013-03-02 09:21:00,
2013-03-02 03:32:00,4.0,1.0,30.39,ENE,65,0.0,0.0,87,0.00,,,0.00,,2013-03-02 09:32:00,
2013-03-02 03:42:00,4.0,1.0,30.39,ENE,65,0.0,0.0,87,0.00,,,0.00,,2013-03-02 09:42:00,
2013-03-02 03:51:00,3.0,0.0,30.39,ENE,65,0.0,0.0,87,0.00,,,0.00,,2013-03-02 09:51:00,
2013-03-02 04:01:00,3.0,0.0,30.39,ENE,65,0.0,1.0,87,0.00,,,0.00,,2013-03-02 10:01:00,
2013-03-02 04:16:00,3.0,0.0,30.39,ENE,65,0.0,1.0,87,0.00,,,0.00,,2013-03-02 10:16:00,
2013-03-02 04:22:00,3.0,0.0,30.40,ENE,65,0.0,1.0,87,0.00,,,0.00,,2013-03-02 10:22:00,
2013-03-02 04:32:00,3.0,0.0,30.40,ENE,65,0.0,2.0,87,0.00,,,0.00,,2013-03-02 10:32:00,
2013-03-02 04:42:00,3.0,0.0,30.40,ENE,65,0.0,2.0,87,0.00,,,0.00,,2013-03-02 10:42:00,
2013-03-02 04:52:00,3.0,0.0,30.40,ENE,65,0.0,0.0,87,0.00,,,0.00,,2013-03-02 10:52:00,
2013-03-02 05:01:00,2.0,-1.0,30.40,ENE,65,0.0,1.0,87,0.00,,,0.00,,2013-03-02 11:01:00,
2013-03-02 05:11:00,2.0,-1.0,30.40,ENE,65,0.0,1.0,87,0.00,,,0.00,,2013-03-02 11:11:00,
2013-03-02 05:21:00,2.0,-1.0,30.41,ENE,65,0.0,1.0,87,0.00,,,0.00,,2013-03-02 11:21:00,
2013-03-02 05:32:00,2.0,-1.0,30.41,ENE,65,0.0,1.0,87,0.00,,,0.00,,2013-03-02 11:32:00,
2013-03-02 05:42:00,2.0,-1.0,30.41,ENE,65,0.0,1.0,87,0.00,,,0.00,,2013-03-02 11:42:00,
2013-03-02 05:52:00,2.0,-1.0,30.40,ENE,65,0.0,1.0,87,0.00,,,0.00,,2013-03-02 11:52:00,
2013-03-02 06:02:00,2.0,-1.0,30.40,ENE,65,0.0,1.0,87,0.00,,,0.00,,2013-03-02 12:02:00,
2013-03-02 06:11:00,2.0,-1.0,30.40,ENE,65,0.0,1.0,87,0.00,,,0.00,,2013-03-02 12:11:00,
2013-03-02 06:21:00,2.0,-1.0,30.40,ENE,65,0.0,2.0,87,0.00,,,0.00,,2013-03-02 12:21:00,
2013-03-02 06:33:00,2.0,-1.0,30.40,ENE,65,0.0,1.0,87,0.00,,,0.00,,2013-03-02 12:33:00,
2013-03-02 06:43:00,2.0,-1.0,30.40,ENE,65,0.0,1.0,87,0.00,,,0.00,,2013-03-02 12:43:00,
2013-03-02 06:53:00,2.0,-1.0,30.41,ENE,65,0.0,1.0,87,0.00,,,0.00,,2013-03-02 12:53:00,
2013-03-02 07:01:00,2.0,-1.0,30.41,ENE,65,0.0,1.0,87,0.00,,,0.00,,2013-03-02 13:01:00,
2013-03-02 07:11:00,2.0,-1.0,30.41,ENE,65,0.0,1.0,87,0.00,,,0.00,,2013-03-02 13:11:00,
2013-03-02 07:22:00,2.0,-1.0,30.42,ENE,65,0.0,0.0,87,0.00,,,0.00,,2013-03-02 13:22:00,
2013-03-02 07:32:00,2.0,-1.0,30.41,ENE,65,0.0,0.0,88,0.00,,,0.00,,2013-03-02 13:32:00,
2013-03-02 07:42:00,2.0,-1.0,30.41,ENE,65,0.0,0.0,88,0.00,,,0.00,,2013-03-02 13:42:00,
2013-03-02 07:52:00,2.0,-1.0,30.42,ENE,65,0.0,0.0,88,0.00,,,0.00,,2013-03-02 13:52:00,
2013-03-02 08:01:00,3.0,1.0,30.42,ENE,65,0.0,1.0,89,0.00,,,0.00,,2013-03-02 14:01:00,
2013-03-02 08:11:00,3.0,1.0,30.42,ENE,65,0.0,1.0,89,0.00,,,0.00,,2013-03-02 14:11:00,
2013-03-02 08:21:00,4.0,2.0,30.42,ENE,65,0.0,1.0,90,0.00,,,0.00,,2013-03-02 14:21:00,
2013-03-02 08:32:00,6.0,4.0,30.41,ENE,65,0.0,0.0,91,0.00,,,0.00,,2013-03-02 14:32:00,
2013-03-02 08:42:00,6.0,4.0,30.41,ENE,65,0.0,0.0,91,0.00,,,0.00,,2013-03-02 14:42:00,
2013-03-02 08:52:00,9.0,7.0,30.41,ENE,65,0.0,2.0,92,0.00,,,0.00,,2013-03-02 14:52:00,
2013-03-02 09:02:00,12.0,10.0,30.41,ENE,65,0.0,2.0,93,0.00,,,0.00,,2013-03-02 15:02:00,
2013-03-02 09:11:00,12.0,10.0,30.41,ENE,65,0.0,2.0,93,0.00,,,0.00,,2013-03-02 15:11:00,
2013-03-02 09:21:00,14.0,12.0,30.41,ENE,65,0.0,2.0,92,0.00,,,0.00,,2013-03-02 15:21:00,
2013-03-02 09:32:00,18.0,14.0,30.40,North,9,1.0,3.0,83,0.00,,,0.00,,2013-03-02 15:32:00,
2013-03-02 09:42:00,18.0,14.0,30.40,North,9,1.0,3.0,83,0.00,,,0.00,,2013-03-02 15:42:00,
2013-03-02 09:52:00,19.0,13.0,30.40,NNE,29,2.0,5.0,77,0.00,,,0.00,,2013-03-02 15:52:00,
2013-03-02 10:01:00,20.0,13.0,30.40,ENE,72,1.0,5.0,74,0.00,,,0.00,,2013-03-02 16:01:00,
2013-03-02 10:11:00,20.0,13.0,30.40,ENE,72,1.0,5.0,74,0.00,,,0.00,,2013-03-02 16:11:00,
2013-03-02 10:21:00,21.0,13.0,30.40,NE,34,1.0,4.0,72,0.00,,,0.00,,2013-03-02 16:21:00,
2013-03-02 10:32:00,22.0,14.0,30.39,NNE,33,1.0,4.0,70,0.00,,,0.00,,2013-03-02 16:32:00,
2013-03-02 10:42:00,22.0,14.0,30.39,NNE,33,1.0,4.0,70,0.00,,,0.00,,2013-03-02 16:42:00,
2013-03-02 10:51:00,22.0,14.0,30.39,NNE,33,1.0,4.0,70,0.00,,,0.00,,2013-03-02 16:51:00,
2013-03-02 11:01:00,23.0,13.0,30.39,NNE,26,1.0,4.0,66,0.00,,,0.00,,2013-03-02 17:01:00,
2013-03-02 11:11:00,23.0,13.0,30.39,NNE,26,1.0,4.0,66,0.00,,,0.00,,2013-03-02 17:11:00,
2013-03-02 11:21:00,23.0,12.0,30.39,ENE,59,2.0,6.0,63,0.00,,,0.00,,2013-03-02 17:21:00,
2013-03-02 11:32:00,23.0,12.0,30.39,ENE,59,2.0,6.0,63,0.00,,,0.00,,2013-03-02 17:32:00,
2013-03-02 11:42:00,23.0,12.0,30.39,ENE,59,2.0,6.0,63,0.00,,,0.00,,2013-03-02 17:42:00,
2013-03-02 11:52:00,24.0,13.0,30.38,SSE,151,0.0,5.0,61,0.00,,,0.00,,2013-03-02 17:52:00,
2013-03-02 12:02:00,25.0,13.0,30.37,South,180,0.0,5.0,60,0.00,,,0.00,,2013-03-02 18:02:00,
2013-03-02 12:11:00,25.0,13.0,30.37,South,180,0.0,5.0,60,0.00,,,0.00,,2013-03-02 18:11:00,
2013-03-02 12:22:00,25.0,13.0,30.37,ENE,74,1.0,4.0,59,0.00,,,0.00,,2013-03-02 18:22:00,
2013-03-02 12:32:00,25.0,12.0,30.36,NNE,33,3.0,8.0,58,0.00,,,0.00,,2013-03-02 18:32:00,
2013-03-02 12:42:00,25.0,12.0,30.36,NNE,33,3.0,8.0,58,0.00,,,0.00,,2013-03-02 18:42:00,
2013-03-02 12:52:00,26.0,13.0,30.36,NE,37,1.0,6.0,57,0.00,,,0.00,,2013-03-02 18:52:00,
2013-03-02 13:01:00,26.0,12.0,30.35,NE,50,1.0,5.0,55,0.00,,,0.00,,2013-03-02 19:01:00,
2013-03-02 13:11:00,26.0,12.0,30.35,NE,50,1.0,5.0,55,0.00,,,0.00,,2013-03-02 19:11:00,
2013-03-02 13:22:00,26.0,12.0,30.35,NE,43,1.0,4.0,54,0.00,,,0.00,,2013-03-02 19:22:00,
2013-03-02 13:32:00,26.0,12.0,30.35,North,5,2.0,3.0,55,0.00,,,0.00,,2013-03-02 19:32:00,
2013-03-02 13:42:00,26.0,12.0,30.35,North,5,2.0,3.0,55,0.00,,,0.00,,2013-03-02 19:42:00,
2013-03-02 13:52:00,27.0,13.0,30.34,North,351,1.0,4.0,55,0.00,,,0.00,,2013-03-02 19:52:00,
2013-03-02 14:01:00,27.0,12.0,30.33,NE,38,2.0,5.0,53,0.00,,,0.00,,2013-03-02 20:01:00,
2013-03-02 14:11:00,27.0,12.0,30.33,NE,38,2.0,5.0,53,0.00,,,0.00,,2013-03-02 20:11:00,
2013-03-02 14:22:00,27.0,12.0,30.33,North,9,2.0,5.0,53,0.00,,,0.00,,2013-03-02 20:22:00,
2013-03-02 14:32:00,27.0,12.0,30.32,NNW,344,2.0,4.0,53,0.00,,,0.00,,2013-03-02 20:32:00,
2013-03-02 14:42:00,27.0,12.0,30.32,NNW,344,2.0,4.0,53,0.00,,,0.00,,2013-03-02 20:42:00,
2013-03-02 14:52:00,27.0,13.0,30.32,NNE,27,1.0,4.0,55,0.00,,,0.00,,2013-03-02 20:52:00,
2013-03-02 15:02:00,27.0,13.0,30.32,NNE,26,1.0,4.0,56,0.00,,,0.00,,2013-03-02 21:02:00,
2013-03-02 15:11:00,27.0,13.0,30.32,NNE,26,1.0,4.0,56,0.00,,,0.00,,2013-03-02 21:11:00,
2013-03-02 15:22:00,27.0,13.0,30.32,ENE,58,1.0,5.0,56,0.00,,,0.00,,2013-03-02 21:22:00,
2013-03-02 15:32:00,26.0,14.0,30.32,NNE,31,2.0,5.0,60,0.00,,,0.00,,2013-03-02 21:32:00,
2013-03-02 15:42:00,26.0,14.0,30.32,NNE,31,2.0,5.0,60,0.00,,,0.00,,2013-03-02 21:42:00,
2013-03-02 15:52:00,26.0,15.0,30.32,NE,48,2.0,5.0,62,0.00,,,0.00,,2013-03-02 21:52:00,
2013-03-02 16:02:00,26.0,16.0,30.32,NE,55,1.0,4.0,64,0.00,,,0.00,,2013-03-02 22:02:00,
2013-03-02 16:11:00,26.0,16.0,30.32,NE,55,1.0,4.0,64,0.00,,,0.00,,2013-03-02 22:11:00,
2013-03-02 16:22:00,26.0,15.0,30.32,NNE,31,1.0,4.0,63,0.00,,,0.00,,2013-03-02 22:22:00,
2013-03-02 16:32:00,26.0,16.0,30.32,NE,47,2.0,5.0,64,0.00,,,0.00,,2013-03-02 22:32:00,
2013-03-02 16:42:00,26.0,16.0,30.32,NE,47,2.0,5.0,64,0.00,,,0.00,,2013-03-02 22:42:00,
2013-03-02 16:51:00,25.0,15.0,30.32,ENE,63,2.0,5.0,66,0.00,,,0.00,,2013-03-02 22:51:00,
2013-03-02 17:01:00,24.0,15.0,30.32,ENE,58,0.0,5.0,67,0.00,,,0.00,,2013-03-02 23:01:00,
2013-03-02 17:11:00,24.0,15.0,30.30,SSE,151,0.0,2.0,69,0.00,,,0.00,,2013-03-02 23:11:00,
2013-03-02 17:21:00,24.0,15.0,30.30,SSE,151,0.0,2.0,69,0.00,,,0.00,,2013-03-02 23:21:00,
2013-03-02 17:32:00,23.0,14.0,30.30,SE,125,0.0,2.0,69,0.00,,,0.00,,2013-03-02 23:32:00,
2013-03-02 17:42:00,23.0,14.0,30.30,SE,125,0.0,2.0,69,0.00,,,0.00,,2013-03-02 23:42:00,
2013-03-02 17:52:00,23.0,15.0,30.30,NNW,337,0.0,2.0,70,0.00,,,0.00,,2013-03-02 23:52:00,
2013-03-02 18:02:00,22.0,14.0,30.30,South,170,0.0,3.0,71,0.00,,,0.00,,2013-03-03 00:02:00,
2013-03-02 18:11:00,22.0,14.0,30.30,South,170,0.0,3.0,71,0.00,,,0.00,,2013-03-03 00:11:00,
2013-03-02 18:22:00,21.0,14.0,30.30,ENE,57,0.0,1.0,73,0.00,,,0.00,,2013-03-03 00:22:00,
2013-03-02 18:32:00,20.0,13.0,30.30,ENE,57,0.0,0.0,75,0.00,,,0.00,,2013-03-03 00:32:00,
2013-03-02 18:42:00,20.0,13.0,30.30,ENE,57,0.0,0.0,75,0.00,,,0.00,,2013-03-03 00:42:00,
2013-03-02 18:52:00,20.0,13.0,30.30,ENE,57,0.0,1.0,74,0.00,,,0.00,,2013-03-03 00:52:00,
2013-03-02 19:01:00,20.0,13.0,30.30,ENE,57,0.0,0.0,75,0.00,,,0.00,,2013-03-03 01:01:00,
2013-03-02 19:11:00,20.0,13.0,30.30,ENE,57,0.0,0.0,75,0.00,,,0.00,,2013-03-03 01:11:00,
2013-03-02 19:21:00,19.0,13.0,30.30,ENE,57,0.0,0.0,77,0.00,,,0.00,,2013-03-03 01:21:00,
2013-03-02 19:32:00,17.0,12.0,30.30,ENE,57,0.0,0.0,80,0.00,,,0.00,,2013-03-03 01:32:00,
2013-03-02 19:42:00,17.0,12.0,30.30,ENE,57,0.0,0.0,80,0.00,,,0.00,,2013-03-03 01:42:00,
2013-03-02 19:52:00,17.0,12.0,30.30,ENE,57,0.0,0.0,82,0.00,,,0.00,,2013-03-03 01:52:00,
2013-03-02 20:01:00,15.0,11.0,30.30,ENE,57,0.0,0.0,83,0.00,,,0.00,,2013-03-03 02:01:00,
2013-03-02 20:11:00,15.0,11.0,30.30,ENE,57,0.0,0.0,83,0.00,,,0.00,,2013-03-03 02:11:00,
2013-03-02 20:21:00,15.0,11.0,30.30,ENE,57,0.0,0.0,83,0.00,,,0.00,,2013-03-03 02:21:00,
2013-03-02 20:32:00,14.0,11.0,30.30,ENE,57,0.0,0.0,86,0.00,,,0.00,,2013-03-03 02:32:00,
2013-03-02 20:41:00,14.0,11.0,30.30,ENE,57,0.0,0.0,86,0.00,,,0.00,,2013-03-03 02:41:00,
2013-03-02 20:52:00,13.0,10.0,30.29,ENE,57,0.0,0.0,87,0.00,,,0.00,,2013-03-03 02:52:00,
2013-03-02 21:01:00,12.0,9.0,30.30,ENE,57,0.0,0.0,87,0.00,,,0.00,,2013-03-03 03:01:00,
2013-03-02 21:11:00,12.0,9.0,30.30,ENE,57,0.0,0.0,87,0.00,,,0.00,,2013-03-03 03:11:00,
2013-03-02 21:21:00,11.0,8.0,30.29,ENE,57,0.0,0.0,87,0.00,,,0.00,,2013-03-03 03:21:00,
2013-03-02 21:31:00,10.0,7.0,30.29,ENE,57,0.0,0.0,87,0.00,,,0.00,,2013-03-03 03:31:00,
2013-03-02 21:41:00,10.0,7.0,30.29,ENE,57,0.0,0.0,87,0.00,,,0.00,,2013-03-03 03:41:00,
2013-03-02 21:51:00,10.0,7.0,30.29,ENE,57,0.0,0.0,88,0.00,,,0.00,,2013-03-03 03:51:00,
2013-03-02 22:01:00,9.0,6.0,30.29,ENE,57,0.0,0.0,88,0.00,,,0.00,,2013-03-03 04:01:00,
2013-03-02 22:11:00,9.0,6.0,30.29,ENE,57,0.0,0.0,88,0.00,,,0.00,,2013-03-03 04:11:00,
2013-03-02 22:21:00,9.0,6.0,30.28,ENE,57,0.0,0.0,88,0.00,,,0.00,,2013-03-03 04:21:00,
2013-03-02 22:32:00,8.0,5.0,30.28,ENE,57,0.0,0.0,88,0.00,,,0.00,,2013-03-03 04:32:00,
2013-03-02 22:42:00,8.0,5.0,30.28,ENE,57,0.0,0.0,88,0.00,,,0.00,,2013-03-03 04:42:00,
2013-03-02 22:51:00,8.0,5.0,30.27,ENE,57,0.0,0.0,88,0.00,,,0.00,,2013-03-03 04:51:00,
2013-03-02 23:02:00,7.0,4.0,30.27,ENE,57,0.0,0.0,88,0.00,,,0.00,,2013-03-03 05:02:00,
2013-03-02 23:11:00,7.0,4.0,30.27,ENE,57,0.0,0.0,88,0.00,,,0.00,,2013-03-03 05:11:00,
2013-03-02 23:22:00,7.0,4.0,30.27,ENE,57,0.0,0.0,88,0.00,,,0.00,,2013-03-03 05:22:00,
2013-03-02 23:32:00,6.0,3.0,30.27,ENE,57,0.0,0.0,88,0.00,,,0.00,,2013-03-03 05:32:00,
2013-03-02 23:42:00,6.0,3.0,30.27,ENE,57,0.0,0.0,88,0.00,,,0.00,,2013-03-03 05:42:00,
2013-03-02 23:52:00,5.0,2.0,30.26,ENE,57,0.0,0.0,87,0.00,,,0.00,,2013-03-03 05:52:00,